Find LES 5

NORAD ID: 2866 Int'l Des: 1967-066 Owner: SAMSO Country: US operational
MEOCIRCULAR

Live-Position

3D-Globus wird geladen...

Über LES 5

Beschreibung wird geladen...

Nächste Überflüge

Passes for default location (London). Set your location on the main map for personalized predictions.

Höhenverlauf

Loading altitude history...

Zweizeiliger Elementsatz

1 2866U 67066E 26106.82551844 -.00000046 00000-0 00000+0 0 9999
2 2866 2.4818 98.1745 0054546 211.7034 335.8023 1.09425187130367
Epoch: 16. Apr. 2026 • Age: 9 hours

Aktueller Status

Höhe 33535.2 km
Geschwindigkeit 3.15 km/s
Subsatellitenpunkt -0.84°S, 156.79°E
Typ other

Most Searched